This is the latest recevied weather packets stored in our database for station/object F4FEB-13. If no packets are shown the sender has not sent any weather packets the latest 10 day(s).
| Time | Temp. | Humidity | Pressure | Rain* | Wind** | Luminosity | Snow |
|---|---|---|---|---|---|---|---|
| 1777475677 | 19.44° C | 44% | 1016.2 hPa | 0 mm | - | - | - |
| 1777475377 | 18.89° C | 44% | 1016.3 hPa | 0 mm | - | - | - |
| 1777475077 | 18.89° C | 46% | 1016.2 hPa | 0 mm | - | - | - |
| 1777474781 | 18.89° C | 44% | 1016.1 hPa | 0 mm | - | - | - |
| 1777474777 | 18.89° C | 44% | 1016.1 hPa | 0 mm | - | - | - |
| 1777474477 | 18.89° C | 46% | 1016.2 hPa | 0 mm | - | - | - |
| 1777474177 | 18.89° C | 47% | 1016.1 hPa | 0 mm | - | - | - |
| 1777473877 | 18.89° C | 46% | 1016.1 hPa | 0 mm | - | - | - |
| 1777473577 | 18.89° C | 46% | 1016.2 hPa | 0 mm | - | - | - |
| 1777473277 | 18.89° C | 46% | 1016.2 hPa | 0 mm | - | - | - |
| 1777472981 | 18.89° C | 44% | 1016.3 hPa | 0 mm | - | - | - |
| 1777472977 | 18.89° C | 44% | 1016.3 hPa | 0 mm | - | - | - |
| 1777472677 | 18.89° C | 44% | 1016.3 hPa | 0 mm | - | - | - |
| 1777472377 | 18.89° C | 48% | 1016.2 hPa | 0 mm | - | - | - |
| 1777472077 | 18.89° C | 46% | 1016.2 hPa | 0 mm | - | - | - |
| 1777471777 | 18.89° C | 48% | 1016.2 hPa | 0 mm | - | - | - |
| 1777471477 | 18.89° C | 46% | 1016.1 hPa | 0 mm | - | - | - |
| 1777471177 | 18.89° C | 49% | 1016.3 hPa | 0 mm | - | - | - |
| 1777470877 | 18.89° C | 48% | 1016.3 hPa | 0 mm | - | - | - |
| 1777470577 | 18.89° C | 47% | 1016.3 hPa | 0 mm | - | - | - |
| 1777470282 | 18.89° C | 48% | 1016.3 hPa | 0 mm | - | - | - |
| 1777470277 | 18.89° C | 48% | 1016.3 hPa | 0 mm | - | - | - |
| 1777469977 | 18.89° C | 47% | 1016.3 hPa | 0 mm | - | - | - |
| 1777469677 | 18.33° C | 49% | 1016.4 hPa | 0 mm | - | - | - |
| 1777469377 | 18.33° C | 48% | 1016.4 hPa | 0 mm | - | - | - |
* Rain latest hour (hover to see other rain measurements)
** Current wind speed in m/s (hover to see current wind gust speed)